Home   Weather   Teresina   Past weeks

Flag for Brazil Past Weather in Teresina, Piauí, Brazil — Yesterday and Last 2 Weeks

Now
77 °F

Thunderstorms. Mostly cloudy.


Feels Like: 78 °F
Forecast: N/A
Wind: 12 mph from Northwest

Location: Teresina Aeroporto

Current Time: Apr 24, 2017 at 8:00:11 pm

Latest Report: Apr 24, 2017 at 7:15 pm


Visibility: 5 mi

Pressure: N/A

Humidity: 83%

Dew Point: 72 °F

Location of TeresinaLocation

Past Weather in Teresina — Graph

°F

Teresina Temperature Yesterday

Maximum temperature yesterday: 91 °F (at 3:00 pm)
Minimum temperature yesterday: 77 °F (at 12:00 am)
Average temperature yesterday: 82 °F

High & Low Weather Summary for the Past Weeks

 TemperatureHumidityPressure
High91 °F (Apr 12, 4:00 pm)94% (Apr 11, 3:00 am)30.09 "Hg (Apr 11, 3:00 am)
Low73 °F (Apr 10, 4:00 am)19% (Apr 20, 10:00 am)29.74 "Hg (Apr 10, 4:00 pm)
Average82 °F81%29.85 "Hg
* Reported Apr 9 7:00 pm — Apr 24 7:00 pm, Teresina, Weather by CustomWeather, © 2017

Note: Actual official high and low records may vary slightly from our data, if they occured in-between our weather recording intervals... More about our weather records

Advertising

Teresina Weather History for the Previous 24 Hours

Scroll right to see more
 ConditionsComfort  
Time TempWeatherWind HumidityBarometerVisibility
7:00 pm
Mon, Apr 24
77 °FLight rain. Mostly cloudy.5 mph89%29.89 "Hg4 mi
6:00 pm77 °FPassing clouds.6 mph83%29.89 "HgN/A
2:00 pm88 °FRain showers. Broken clouds.3 mph75%29.80 "HgN/A
1:00 pm88 °FScattered clouds.5 mph79%29.83 "HgN/A
12:00 pm84 °FPartly sunny.9 mph79%29.89 "HgN/A
11:00 am86 °FScattered clouds.6 mph79%29.92 "HgN/A
10:00 am82 °FPartly sunny.5 mph89%29.95 "HgN/A
9:00 am81 °FPartly sunny.5 mph89%29.95 "HgN/A
8:00 am79 °FPartly sunny.3 mph89%29.92 "HgN/A
7:00 am79 °FPartly sunny.5 mph89%29.89 "HgN/A
6:00 am77 °FPassing clouds.3 mph89%29.86 "HgN/A
4:00 am77 °FPartly cloudy.3 mph94%29.86 "HgN/A
1:00 am79 °FPassing clouds.5 mph84%29.86 "HgN/A
12:00 am79 °FClear.2 mph84%29.89 "Hg10 mi
11:00 pm
Sun, Apr 23
79 °FClear.5 mph84%29.89 "Hg10 mi
10:00 pm81 °FClear.6 mph79%29.89 "Hg10 mi
9:00 pm82 °FClear.5 mph79%29.86 "Hg10 mi
8:00 pm81 °FClear.5 mph79%29.86 "Hg10 mi
Weather by CustomWeather, © 2017

See weather overviewHow to use our weather pages